Find Local Weather

World > North America > United States > New York

Bronx, New York Regional Weather

Lat: 40.85N, Lon: 73.87W
Wx Zone: NYZ073
Feedback
Expires:201809190100;;855885
ASUS41 KALY 190010
RWRALY

NEW YORK STATE HOURLY WEATHER ROUNDUP
NATIONAL WEATHER SERVICE ALBANY NY
800 PM EDT TUE SEP 18 2018

NOTE: "FAIR" INDICATES FEW OR NO CLOUDS BELOW 12,000 FEET WITH NO
SIGNIFICANT WEATHER AND/OR NO OBSTRUCTIONS TO VISIBILITY.


NYZ032-033-038>043-046>054-057>066-NYZ062>081-082-084-190100-
EAST

  
CITY           SKY/WX    TMP DP  RH WIND       PRES   REMARKS
ALBANY         FAIR      76  67  73 W7        29.78R                  
GLENS FALLS    FAIR      73  69  87 NW5       29.77R                  
POUGHKEEPSIE   FAIR      71  69  93 CALM      29.77R                  
NEWBURGH       CLEAR     72  70  94 CALM      29.81R                  
MONTGOMERY     FAIR      70  69  97 CALM      29.79R                  
WHITE PLAINS   FAIR      69  68  96 CALM      29.78R                  
ISLIP          MOCLDY    70  69  97 N6        29.76R                  
NEW YORK CITY  FAIR      73  69  87 E3        29.77R                  
CENTRAL PARK   FAIR      71  70  96 CALM      29.81R                  
$$


SKY/WX - Weather  TMP - Temperature  DP - Dew Point  RH - Relative Humidity
WIND - Wind Direction/Speed PRES - Barometric Pressure